Hourly Data Report for February 08, 2019

TORONTO CITY
ONTARIO
Current Station Operator: ECCC - MSC

43°40'00.000" N
79°24'00.000" W
112.50 m
6158355
71508
XTO

Download Data

Hourly Data (February 2019)
Hourly Data Report for February 8, 2019
TIME
LST
Temp Definition
°C
Dew Point Definition
°C
Rel Hum Definition
%
Precip. Amount Definition
mm

Wind Dir Definition
10's deg

Wind Spd Definition
km/h
Visibility Definition
km
Stn Press Definition
kPa
Hmdx Definition


Wind Chill Definition


Weather Definition


00:00 3.9 3.0 94 0.0 LegendMM LegendMM   98.57     LegendNANA
01:00 5.9 5.0 94 0.2 LegendMM LegendMM   98.58     LegendNANA
02:00 5.0 4.1 94 0.0 LegendMM LegendMM   98.74     LegendNANA
03:00 4.2 0.6 78 0.0 LegendMM LegendMM   98.99     LegendNANA
04:00 3.5 -1.5 70 0.0 LegendMM LegendMM   99.12     LegendNANA
05:00 2.8 -2.4 68 0.0 LegendMM LegendMM   99.27     LegendNANA
06:00 2.0 -2.8 70 0.0 LegendMM LegendMM   99.40     LegendNANA
07:00 0.6 -6.3 60 0.0 LegendMM LegendMM   99.61     LegendNANA
08:00 -1.0 -7.7 60 0.0 LegendMM LegendMM   99.81     LegendNANA
09:00 -1.7 -10.5 51 0.0 LegendMM LegendMM   99.97     LegendNANA
10:00 -2.8 -9.4 60 0.0 LegendMM LegendMM   100.12     LegendNANA
11:00 -3.6 -10.6 58 0.0 LegendMM LegendMM   100.25     LegendNANA
12:00 -3.6 -12.5 50 0.0 LegendMM LegendMM   100.36     LegendNANA
13:00 -3.7 -11.4 56 0.0 LegendMM LegendMM   100.42     LegendNANA
14:00 -3.6 -12.5 50 0.0 LegendMM LegendMM   100.50     LegendNANA
15:00 -3.8 -11.4 56 0.0 LegendMM LegendMM   100.55     LegendNANA
16:00 -5.2 -8.2 80 0.0 LegendMM LegendMM   100.71     LegendNANA
17:00 -5.4 -13.2 54 0.0 LegendMM LegendMM   100.84     LegendNANA
18:00 -6.7 -11.2 71 0.2 LegendMM LegendMM   100.98     LegendNANA
19:00 -7.0 -13.4 60 0.0 LegendMM LegendMM   101.13     LegendNANA
20:00 -7.5 -14.5 57 0.0 LegendMM LegendMM   101.24     LegendNANA
21:00 -7.8 -15.5 54 0.0 LegendMM LegendMM   101.36     LegendNANA
22:00 -8.3 -13.6 65 0.0 LegendMM LegendMM   101.49     LegendNANA
23:00 -8.3 -16.6 51 0.0 LegendMM LegendMM   101.62     LegendNANA

Notes on Data Quality.

Legend

  • E = Estimated
  • M = Missing
  • NA = Not Available*
  • [empty] = Indicates an unobserved value
Date modified: